Weather History for Sturgeon Bay, WI

Change the Weather History Date:

Thursday, October 30, 2014

  Actual Average Record
Temperature  
Mean Temperature 42 °F -  
Max Temperature 44 °F 51 °F 74 °F (1933)
Min Temperature 39 °F 35 °F 12 °F (1925)
Degree Days  
Heating Degree Days 24    
Moisture  
Dew Point 33 °F    
Average Humidity 70    
Maximum Humidity 87    
Minimum Humidity 57    
Precipitation  
Precipitation 0.00 in - - ()
Sea Level Pressure  
Sea Level Pressure 30.04 in    
Wind  
Wind Speed 7 mph (West)    
Max Wind Speed 18 mph    
Max Gust Speed 25 mph    
Visibility 10 miles    
Events      
Averages and records for this station are not official NWS values.
T = Trace of Precipitation, MM = Missing Value Source: NWS Daily Summary

Daily Weather History Graph

Daily Weather History Graph

Search for Another Location

Airport:

Trip Planner

Search our weather history database for the weather conditions in past years. The results will help you decide how hot, cold, wet, or windy it might be!

Date:

Astronomy

Oct. 30, 2014 Rise Set
Actual Time 7:25 AM CDT 5:40 PM CDT
Civil Twilight 6:54 AM CDT 6:11 PM CDT
Nautical Twilight 6:20 AM CDT 6:45 PM CDT
Astronomical Twilight 5:46 AM CDT 7:19 PM CDT
Moon 1:29 PM CDT (10/30) 11:57 PM CDT (10/30)
Length of Visible Light 11h 16m
Length of Day
10h 15m
Waxing Crescent, 45% of the Moon is Illuminated
Oct 30
Waxing Crescent
Oct 30
First Quarter
Nov 6
Full
Nov 14
Last Quarter
Nov 22
New

Hourly Weather History & Observations

Time (CDT) Temp. Windchill Dew Point Humidity Pressure Visibility Wind Dir Wind Speed Gust Speed Precip Events Conditions
12:15 AM 44.6 °F 39.7 °F 33.8 °F 66% 30.10 in 10.0 mi NW 9.2 mph - N/A   Overcast
12:35 AM 44.6 °F 41.4 °F 33.8 °F 66% 30.10 in 10.0 mi NNW 5.8 mph - N/A   Overcast
12:55 AM 42.8 °F 39.3 °F 35.6 °F 76% 30.10 in 10.0 mi NNW 5.8 mph - N/A   Overcast
1:15 AM 42.8 °F 39.3 °F 33.8 °F 70% 30.10 in 10.0 mi NNW 5.8 mph - N/A   Overcast
1:35 AM 42.8 °F 40.1 °F 33.8 °F 70% 30.09 in 10.0 mi NNW 4.6 mph - N/A   Mostly Cloudy
1:55 AM 42.8 °F - 33.8 °F 70% 30.09 in 10.0 mi Calm Calm - N/A   Clear
2:15 AM 41.0 °F 38.0 °F 32.0 °F 70% 30.09 in 10.0 mi West 4.6 mph - N/A   Clear
2:35 AM 41.0 °F 38.0 °F 33.8 °F 76% 30.09 in 10.0 mi West 4.6 mph - N/A   Mostly Cloudy
2:55 AM 41.0 °F 38.0 °F 33.8 °F 76% 30.09 in 10.0 mi West 4.6 mph - N/A   Overcast
3:15 AM 41.0 °F 38.0 °F 33.8 °F 76% 30.08 in 10.0 mi WSW 4.6 mph - N/A   Overcast
3:35 AM 39.2 °F 37.0 °F 33.8 °F 81% 30.08 in 10.0 mi SW 3.5 mph - N/A   Overcast
3:55 AM 41.0 °F 38.0 °F 33.8 °F 76% 30.08 in 10.0 mi WSW 4.6 mph - N/A   Overcast
4:15 AM 41.0 °F 39.0 °F 33.8 °F 76% 30.08 in 10.0 mi WSW 3.5 mph - N/A   Overcast
4:35 AM 41.0 °F - 33.8 °F 76% 30.08 in 10.0 mi Calm Calm - N/A   Overcast
4:55 AM 39.2 °F 37.0 °F 33.8 °F 81% 30.08 in 10.0 mi WSW 3.5 mph - N/A   Overcast
5:15 AM 41.0 °F - 33.8 °F 76% 30.08 in 10.0 mi Calm Calm - N/A   Overcast
5:35 AM 41.0 °F - 33.8 °F 76% 30.08 in 10.0 mi Calm Calm - N/A   Overcast
5:55 AM 41.0 °F - 33.8 °F 76% 30.08 in 10.0 mi Calm Calm - N/A   Overcast
6:15 AM 39.2 °F 37.0 °F 35.6 °F 87% 30.08 in 10.0 mi SSW 3.5 mph - N/A   Overcast
6:35 AM 41.0 °F 39.0 °F 33.8 °F 76% 30.08 in 10.0 mi SSW 3.5 mph - N/A   Overcast
6:55 AM 41.0 °F 38.0 °F 33.8 °F 76% 30.08 in 10.0 mi SSW 4.6 mph - N/A   Overcast
7:15 AM 41.0 °F 37.1 °F 33.8 °F 76% 30.08 in 10.0 mi South 5.8 mph - N/A   Overcast
7:35 AM 39.2 °F 35.9 °F 33.8 °F 81% 30.08 in 10.0 mi SSW 4.6 mph - N/A   Overcast
7:55 AM 39.2 °F 35.9 °F 33.8 °F 81% 30.08 in 10.0 mi SSW 4.6 mph - N/A   Overcast
8:15 AM 39.2 °F 35.0 °F 33.8 °F 81% 30.08 in 10.0 mi SSW 5.8 mph - N/A   Overcast
8:35 AM 41.0 °F 38.0 °F 33.8 °F 76% 30.08 in 10.0 mi SSW 4.6 mph - N/A   Mostly Cloudy
8:55 AM 41.0 °F 38.0 °F 33.8 °F 76% 30.08 in 10.0 mi SSW 4.6 mph - N/A   Mostly Cloudy
9:15 AM 42.8 °F 40.1 °F 35.6 °F 76% 30.08 in 10.0 mi SW 4.6 mph - N/A   Overcast
9:35 AM 42.8 °F 40.1 °F 35.6 °F 76% 30.07 in 10.0 mi WSW 4.6 mph - N/A   Overcast
9:55 AM 42.8 °F 38.6 °F 35.6 °F 76% 30.08 in 10.0 mi WSW 6.9 mph - N/A   Overcast
10:15 AM 44.6 °F 39.7 °F 35.6 °F 71% 30.07 in 10.0 mi WSW 9.2 mph - N/A   Overcast
10:35 AM 42.8 °F 37.5 °F 33.8 °F 70% 30.07 in 10.0 mi WSW 9.2 mph - N/A   Overcast
10:55 AM 42.8 °F 39.3 °F 35.6 °F 76% 30.07 in 10.0 mi WSW 5.8 mph - N/A   Overcast
11:15 AM 42.8 °F 39.3 °F 35.6 °F 76% 30.07 in 10.0 mi West 5.8 mph - N/A   Overcast
11:35 AM 44.6 °F 39.7 °F 33.8 °F 66% 30.06 in 10.0 mi West 9.2 mph - N/A   Mostly Cloudy
11:55 AM 44.6 °F 38.4 °F 33.8 °F 66% 30.06 in 10.0 mi WSW 12.7 mph - N/A   Overcast
12:15 PM 44.6 °F 39.7 °F 33.8 °F 66% 30.06 in 10.0 mi West 9.2 mph - N/A   Overcast
12:35 PM 44.6 °F 39.2 °F 33.8 °F 66% 30.05 in 10.0 mi West 10.4 mph - N/A   Overcast
12:55 PM 44.6 °F 39.7 °F 33.8 °F 66% 30.05 in 10.0 mi West 9.2 mph - N/A   Overcast
1:15 PM 44.6 °F 40.2 °F 33.8 °F 66% 30.04 in 10.0 mi West 8.1 mph - N/A   Overcast
1:35 PM 44.6 °F 39.2 °F 33.8 °F 66% 30.04 in 10.0 mi West 10.4 mph - N/A   Overcast
1:55 PM 44.6 °F 40.2 °F 33.8 °F 66% 30.03 in 10.0 mi WSW 8.1 mph - N/A   Overcast
2:15 PM 44.6 °F 39.7 °F 33.8 °F 66% 30.02 in 10.0 mi WSW 9.2 mph - N/A   Overcast
2:35 PM 44.6 °F 39.2 °F 33.8 °F 66% 30.01 in 10.0 mi WSW 10.4 mph - N/A   Overcast
2:55 PM 44.6 °F 39.7 °F 33.8 °F 66% 30.01 in 10.0 mi West 9.2 mph - N/A   Overcast
3:15 PM 44.6 °F 40.7 °F 33.8 °F 66% 30.01 in 10.0 mi West 6.9 mph - N/A   Overcast
3:35 PM 44.6 °F 39.7 °F 33.8 °F 66% 30.01 in 10.0 mi West 9.2 mph 16.1 mph N/A   Overcast
3:55 PM 44.6 °F 39.7 °F 33.8 °F 66% 30.01 in 10.0 mi West 9.2 mph - N/A   Mostly Cloudy
4:15 PM 44.6 °F 39.7 °F 33.8 °F 66% 30.01 in 10.0 mi WSW 9.2 mph - N/A   Mostly Cloudy
4:35 PM 44.6 °F 39.7 °F 33.8 °F 66% 30.01 in 10.0 mi West 9.2 mph - N/A   Overcast
4:55 PM 44.6 °F 39.2 °F 33.8 °F 66% 30.01 in 10.0 mi West 10.4 mph - N/A   Overcast
5:15 PM 44.6 °F 40.2 °F 33.8 °F 66% 30.01 in 10.0 mi West 8.1 mph - N/A   Overcast
5:35 PM 44.6 °F 41.4 °F 33.8 °F 66% 30.01 in 10.0 mi West 5.8 mph - N/A   Overcast
5:55 PM 44.6 °F 42.2 °F 33.8 °F 66% 30.01 in 10.0 mi WSW 4.6 mph - N/A   Overcast
6:15 PM 44.6 °F 42.2 °F 33.8 °F 66% 30.01 in 10.0 mi WSW 4.6 mph - N/A   Overcast
6:35 PM 44.6 °F 42.2 °F 33.8 °F 66% 30.01 in 10.0 mi WSW 4.6 mph - N/A   Overcast
6:55 PM 44.6 °F 43.1 °F 33.8 °F 66% 30.00 in 10.0 mi WSW 3.5 mph - N/A   Overcast
7:15 PM 44.6 °F 42.2 °F 33.8 °F 66% 30.00 in 10.0 mi West 4.6 mph - N/A   Overcast
7:35 PM 44.6 °F 39.2 °F 33.8 °F 66% 30.00 in 10.0 mi WNW 10.4 mph - N/A   Mostly Cloudy
7:55 PM 44.6 °F 39.2 °F 33.8 °F 66% 30.01 in 10.0 mi NW 10.4 mph - N/A   Overcast
8:15 PM 44.6 °F 40.2 °F 33.8 °F 66% 30.00 in 10.0 mi NW 8.1 mph - N/A   Overcast
8:35 PM 44.6 °F 38.8 °F 32.0 °F 61% 30.00 in 10.0 mi NNW 11.5 mph - N/A   Overcast
8:55 PM 44.6 °F 37.8 °F 30.2 °F 57% 29.99 in 10.0 mi NW 15.0 mph - N/A   Overcast
9:15 PM 44.6 °F 39.2 °F 30.2 °F 57% 29.99 in 10.0 mi NW 10.4 mph 19.6 mph N/A   Overcast
9:35 PM 42.8 °F 35.8 °F 30.2 °F 61% 29.99 in 10.0 mi NW 13.8 mph 24.2 mph N/A   Mostly Cloudy
9:55 PM 42.8 °F 37.0 °F 30.2 °F 61% 30.00 in 10.0 mi NW 10.4 mph - N/A   Overcast
10:15 PM 42.8 °F 35.4 °F 30.2 °F 61% 29.99 in 10.0 mi NW 15.0 mph - N/A   Overcast
10:35 PM 42.8 °F 35.4 °F 30.2 °F 61% 29.99 in 10.0 mi NW 15.0 mph - N/A   Overcast
10:55 PM 42.8 °F 34.8 °F 30.2 °F 61% 29.99 in 10.0 mi NW 17.3 mph 25.3 mph N/A   Overcast
11:15 PM 42.8 °F 35.4 °F 30.2 °F 61% 29.98 in 10.0 mi NW 15.0 mph - N/A   Overcast
11:35 PM 42.8 °F 35.1 °F 30.2 °F 61% 29.98 in 10.0 mi NW 16.1 mph 23.0 mph N/A   Overcast
11:55 PM 42.8 °F 34.5 °F 30.2 °F 61% 29.98 in 10.0 mi NW 18.4 mph 24.2 mph N/A   Overcast